Location: Roland
(31.1349°N, 85.4372°W)
Time: 03:36:06
(UTC+00:00)

Courier 1B - Pass Details

Date: 27 April 2021
Orbit: 962 x 1209 km, 28.3° (Epoch: 07 May)

Event Time Altitude Azimuth Distance (km) Brightness Sun altitude
Rises 14:27:13 0° 236° (SW) 4,011 10.4 42.9°
Reaches altitude 10° 14:30:14 10° 229° (SW) 3,017 9.9 43.5°
Maximum altitude 14:37:09 43° 161° (SSE) 1,493 9.4 45.0°
Drops below altitude 10° 14:43:40 10° 92° (E) 2,848 10.9 46.3°
Sets 14:46:26 0° 86° (E) 3,766 11.2 46.9°
